Wetterdaten: Freitag, 24.10.2014
Datum Zeit Temperatur Luftfeuchte Luftdruck Regen Wind Richtung Richtung Taupunkt Windchill Windben
24.10.2014 00:00 2,6 C 98 % 1024,5 hPa 0,0 l/m 0,0 km/h (0 Bft) NW 315 2,3 C 2,3 C 0,0 km/h (0 Bft)
24.10.2014 00:05 2,5 C 98 % 1024,5 hPa 0,0 l/m 0,0 km/h (0 Bft) NW 315 2,2 C 2,3 C 0,0 km/h (0 Bft)
24.10.2014 00:10 2,5 C 98 % 1024,5 hPa 0,0 l/m 0,0 km/h (0 Bft) NW 315 2,2 C 2,3 C 0,0 km/h (0 Bft)
24.10.2014 00:15 2,6 C 98 % 1024,5 hPa 0,0 l/m 0,0 km/h (0 Bft) NW 315 2,3 C 2,3 C 0,0 km/h (0 Bft)
24.10.2014 00:20 2,6 C 98 % 1024,4 hPa 0,0 l/m 0,0 km/h (0 Bft) NW 315 2,3 C 2,3 C 0,0 km/h (0 Bft)
24.10.2014 00:25 2,6 C 98 % 1024,4 hPa 0,0 l/m 0,0 km/h (0 Bft) NW 315 2,3 C 2,3 C 0,0 km/h (0 Bft)
24.10.2014 00:30 2,6 C 98 % 1024,4 hPa 0,0 l/m 0,0 km/h (0 Bft) NW 315 2,3 C 2,3 C 0,0 km/h (0 Bft)
24.10.2014 00:35 2,6 C 98 % 1024,4 hPa 0,0 l/m 0,0 km/h (0 Bft) NW 315 2,3 C 2,3 C 0,0 km/h (0 Bft)
24.10.2014 00:40 2,6 C 98 % 1024,4 hPa 0,0 l/m 0,0 km/h (0 Bft) NW 315 2,3 C 2,3 C 0,0 km/h (0 Bft)
24.10.2014 00:45 2,6 C 98 % 1024,4 hPa 0,0 l/m 0,0 km/h (0 Bft) NW 315 2,3 C 2,3 C 0,0 km/h (0 Bft)
24.10.2014 00:50 2,6 C 98 % 1024,4 hPa 0,0 l/m 0,0 km/h (0 Bft) NW 315 2,3 C 2,3 C 0,0 km/h (0 Bft)
24.10.2014 00:55 2,6 C 98 % 1024,4 hPa 0,0 l/m 0,0 km/h (0 Bft) NW 315 2,3 C 2,3 C 0,0 km/h (0 Bft)
24.10.2014 01:00 2,6 C 98 % 1024,3 hPa 0,0 l/m 0,0 km/h (0 Bft) NW 315 2,3 C 2,3 C 0,0 km/h (0 Bft)
24.10.2014 01:05 2,6 C 98 % 1024,3 hPa 0,0 l/m 0,0 km/h (0 Bft) NW 315 2,3 C 2,3 C 0,0 km/h (0 Bft)
24.10.2014 01:10 2,6 C 98 % 1024,3 hPa 0,0 l/m 0,0 km/h (0 Bft) NW 315 2,3 C 2,3 C 0,0 km/h (0 Bft)
24.10.2014 01:15 2,7 C 98 % 1024,3 hPa 0,0 l/m 0,0 km/h (0 Bft) NW 315 2,4 C 2,3 C 0,0 km/h (0 Bft)
24.10.2014 01:20 2,7 C 98 % 1024,3 hPa 0,0 l/m 0,0 km/h (0 Bft) NW 315 2,4 C 2,3 C 0,0 km/h (0 Bft)
24.10.2014 01:25 2,7 C 98 % 1024,3 hPa 0,0 l/m 0,0 km/h (0 Bft) NW 315 2,4 C 2,3 C 0,0 km/h (0 Bft)
24.10.2014 01:30 2,6 C 98 % 1024,3 hPa 0,0 l/m 0,0 km/h (0 Bft) NW 315 2,3 C 2,3 C 0,0 km/h (0 Bft)
24.10.2014 01:35 2,6 C 98 % 1024,3 hPa 0,0 l/m 0,0 km/h (0 Bft) NW 315 2,3 C 2,3 C 0,0 km/h (0 Bft)
24.10.2014 01:40 2,6 C 98 % 1024,3 hPa 0,0 l/m 0,0 km/h (0 Bft) NW 315 2,3 C 2,3 C 0,0 km/h (0 Bft)
24.10.2014 01:45 2,7 C 98 % 1024,3 hPa 0,0 l/m 0,0 km/h (0 Bft) NW 315 2,4 C 2,3 C 0,0 km/h (0 Bft)
24.10.2014 01:50 2,7 C 98 % 1024,3 hPa 0,0 l/m 0,0 km/h (0 Bft) NW 315 2,4 C 2,3 C 0,0 km/h (0 Bft)
24.10.2014 01:55 2,7 C 98 % 1024,3 hPa 0,0 l/m 0,0 km/h (0 Bft) NW 315 2,4 C 2,3 C 0,0 km/h (0 Bft)
24.10.2014 02:00 2,7 C 98 % 1024,4 hPa 0,0 l/m 0,0 km/h (0 Bft) NW 315 2,4 C 2,3 C 0,0 km/h (0 Bft)
24.10.2014 02:05 2,7 C 98 % 1024,4 hPa 0,0 l/m 0,0 km/h (0 Bft) NW 315 2,4 C 2,3 C 0,0 km/h (0 Bft)
24.10.2014 02:10 2,7 C 98 % 1024,4 hPa 0,0 l/m 0,0 km/h (0 Bft) NW 315 2,4 C 2,3 C 0,0 km/h (0 Bft)
24.10.2014 02:15 2,7 C 98 % 1024,4 hPa 0,0 l/m 0,0 km/h (0 Bft) NW 315 2,4 C 2,3 C 0,0 km/h (0 Bft)
24.10.2014 02:18 2,7 C 98 % 1024,4 hPa 0,0 l/m 0,0 km/h (0 Bft) NW 315 2,4 C 2,3 C 0,0 km/h (0 Bft)
24.10.2014 02:20 2,7 C 98 % 1024,4 hPa 0,0 l/m 0,0 km/h (0 Bft) NW 315 2,4 C 2,3 C 0,0 km/h (0 Bft)
24.10.2014 02:25 2,7 C 98 % 1024,4 hPa 0,0 l/m 0,0 km/h (0 Bft) NW 315 2,4 C 2,3 C 0,0 km/h (0 Bft)
24.10.2014 02:30 2,7 C 98 % 1024,4 hPa 0,0 l/m 0,0 km/h (0 Bft) NW 315 2,4 C 2,3 C 0,0 km/h (0 Bft)
24.10.2014 02:35 2,7 C 98 % 1024,4 hPa 0,0 l/m 0,0 km/h (0 Bft) NW 315 2,4 C 2,3 C 0,0 km/h (0 Bft)
24.10.2014 02:40 2,7 C 98 % 1024,3 hPa 0,0 l/m 0,0 km/h (0 Bft) NW 315 2,4 C 2,3 C 0,0 km/h (0 Bft)
24.10.2014 02:45 2,7 C 98 % 1024,3 hPa 0,0 l/m 0,0 km/h (0 Bft) NW 315 2,4 C 2,3 C 0,0 km/h (0 Bft)
24.10.2014 02:50 2,7 C 98 % 1024,3 hPa 0,0 l/m 0,0 km/h (0 Bft) NW 315 2,4 C 2,3 C 0,0 km/h (0 Bft)
24.10.2014 02:55 2,7 C 98 % 1024,3 hPa 0,0 l/m 0,0 km/h (0 Bft) NW 315 2,4 C 2,3 C 0,0 km/h (0 Bft)
24.10.2014 03:00 2,7 C 98 % 1024,4 hPa 0,0 l/m 0,0 km/h (0 Bft) NW 315 2,4 C 2,3 C 0,0 km/h (0 Bft)
24.10.2014 03:05 2,7 C 98 % 1024,4 hPa 0,0 l/m 0,0 km/h (0 Bft) NW 315 2,4 C 2,3 C 0,0 km/h (0 Bft)
24.10.2014 03:10 2,8 C 98 % 1024,4 hPa 0,0 l/m 0,0 km/h (0 Bft) NW 315 2,5 C 2,3 C 0,0 km/h (0 Bft)
24.10.2014 03:15 2,9 C 98 % 1024,4 hPa 0,0 l/m 0,0 km/h (0 Bft) NW 315 2,6 C 2,3 C 0,0 km/h (0 Bft)
24.10.2014 03:20 2,9 C 98 % 1024,4 hPa 0,0 l/m 0,0 km/h (0 Bft) NW 315 2,6 C 2,3 C 0,0 km/h (0 Bft)
24.10.2014 03:25 2,9 C 98 % 1024,4 hPa 0,0 l/m 0,0 km/h (0 Bft) NW 315 2,6 C 2,3 C 0,0 km/h (0 Bft)
24.10.2014 03:30 2,9 C 98 % 1024,4 hPa 0,0 l/m 0,0 km/h (0 Bft) NW 315 2,6 C 2,3 C 0,0 km/h (0 Bft)
24.10.2014 03:35 2,9 C 98 % 1024,4 hPa 0,0 l/m 0,0 km/h (0 Bft) NW 315 2,6 C 2,3 C 0,0 km/h (0 Bft)
24.10.2014 03:40 2,9 C 98 % 1024,3 hPa 0,0 l/m 0,0 km/h (0 Bft) NW 315 2,6 C 2,3 C 0,0 km/h (0 Bft)
24.10.2014 03:45 2,9 C 98 % 1024,3 hPa 0,0 l/m 0,0 km/h (0 Bft) NW 315 2,6 C 2,3 C 0,0 km/h (0 Bft)
24.10.2014 03:50 2,9 C 98 % 1024,3 hPa 0,0 l/m 0,0 km/h (0 Bft) NW 315 2,6 C 2,3 C 0,0 km/h (0 Bft)
24.10.2014 03:55 2,9 C 98 % 1024,3 hPa 0,0 l/m 0,0 km/h (0 Bft) NW 315 2,6 C 2,3 C 0,0 km/h (0 Bft)
24.10.2014 04:00 2,9 C 98 % 1024,1 hPa 0,0 l/m 0,0 km/h (0 Bft) NW 315 2,6 C 2,3 C 0,0 km/h (0 Bft)
24.10.2014 04:05 2,9 C 98 % 1024,1 hPa 0,0 l/m 0,0 km/h (0 Bft) NW 315 2,6 C 2,3 C 0,0 km/h (0 Bft)
24.10.2014 04:10 2,9 C 98 % 1024,1 hPa 0,0 l/m 0,0 km/h (0 Bft) NW 315 2,6 C 2,3 C 0,0 km/h (0 Bft)
24.10.2014 04:15 2,9 C 98 % 1024,1 hPa 0,0 l/m 0,0 km/h (0 Bft) NW 315 2,6 C 2,3 C 0,0 km/h (0 Bft)
24.10.2014 04:20 2,9 C 98 % 1023,9 hPa 0,0 l/m 0,0 km/h (0 Bft) NW 315 2,6 C 2,3 C 0,0 km/h (0 Bft)
24.10.2014 04:25 2,9 C 98 % 1023,9 hPa 0,0 l/m 0,0 km/h (0 Bft) NW 315 2,6 C 2,3 C 0,0 km/h (0 Bft)
24.10.2014 04:30 2,9 C 98 % 1023,9 hPa 0,0 l/m 0,0 km/h (0 Bft) NW 315 2,6 C 2,3 C 0,0 km/h (0 Bft)
24.10.2014 04:35 3,0 C 97 % 1023,9 hPa 0,0 l/m 0,0 km/h (0 Bft) NW 315 2,6 C 2,3 C 0,0 km/h (0 Bft)
24.10.2014 04:40 2,9 C 98 % 1023,8 hPa 0,0 l/m 0,0 km/h (0 Bft) NW 315 2,6 C 2,3 C 0,0 km/h (0 Bft)
24.10.2014 04:45 2,9 C 98 % 1023,8 hPa 0,0 l/m 0,0 km/h (0 Bft) NW 315 2,6 C 2,3 C 0,0 km/h (0 Bft)
24.10.2014 04:50 2,9 C 98 % 1023,8 hPa 0,0 l/m 0,0 km/h (0 Bft) NW 315 2,6 C 2,3 C 0,0 km/h (0 Bft)
24.10.2014 04:55 3,0 C 97 % 1023,8 hPa 0,0 l/m 0,0 km/h (0 Bft) NW 315 2,6 C 2,3 C 0,0 km/h (0 Bft)
24.10.2014 05:00 2,9 C 98 % 1023,5 hPa 0,0 l/m 0,0 km/h (0 Bft) NW 315 2,6 C 2,3 C 0,0 km/h (0 Bft)
24.10.2014 05:05 3,0 C 97 % 1023,5 hPa 0,0 l/m 0,0 km/h (0 Bft) NW 315 2,6 C 2,3 C 0,0 km/h (0 Bft)
24.10.2014 05:10 3,0 C 97 % 1023,5 hPa 0,0 l/m 0,0 km/h (0 Bft) NW 315 2,6 C 2,3 C 0,0 km/h (0 Bft)
24.10.2014 05:15 3,0 C 97 % 1023,5 hPa 0,0 l/m 0,0 km/h (0 Bft) NW 315 2,6 C 2,3 C 0,0 km/h (0 Bft)
24.10.2014 05:18 3,0 C 97 % 1023,4 hPa 0,0 l/m 0,0 km/h (0 Bft) NW 315 2,6 C 2,3 C 0,0 km/h (0 Bft)
24.10.2014 05:20 3,0 C 97 % 1023,4 hPa 0,0 l/m 0,0 km/h (0 Bft) NW 315 2,6 C 2,3 C 0,0 km/h (0 Bft)
24.10.2014 05:25 3,0 C 97 % 1023,4 hPa 0,0 l/m 0,0 km/h (0 Bft) NW 315 2,6 C 2,3 C 0,0 km/h (0 Bft)
24.10.2014 05:30 3,0 C 97 % 1023,4 hPa 0,0 l/m 0,0 km/h (0 Bft) NW 315 2,6 C 2,3 C 0,0 km/h (0 Bft)
24.10.2014 05:35 3,0 C 97 % 1023,4 hPa 0,0 l/m 0,0 km/h (0 Bft) NW 315 2,6 C 2,3 C 0,0 km/h (0 Bft)
24.10.2014 05:40 3,0 C 97 % 1023,4 hPa 0,0 l/m 0,0 km/h (0 Bft) NW 315 2,6 C 2,3 C 0,0 km/h (0 Bft)
24.10.2014 05:45 3,0 C 97 % 1023,4 hPa 0,0 l/m 0,0 km/h (0 Bft) NW 315 2,6 C 2,3 C 0,0 km/h (0 Bft)
24.10.2014 05:50 3,0 C 97 % 1023,4 hPa 0,0 l/m 0,0 km/h (0 Bft) NW 315 2,6 C 2,3 C 0,0 km/h (0 Bft)
24.10.2014 05:55 3,0 C 97 % 1023,4 hPa 0,0 l/m 0,0 km/h (0 Bft) NW 315 2,6 C 2,3 C 0,0 km/h (0 Bft)
24.10.2014 06:00 2,8 C 98 % 1023,2 hPa 0,0 l/m 0,0 km/h (0 Bft) NW 315 2,5 C 2,3 C 0,0 km/h (0 Bft)
24.10.2014 06:05 2,7 C 98 % 1023,2 hPa 0,0 l/m 0,0 km/h (0 Bft) NW 315 2,4 C 2,3 C 0,0 km/h (0 Bft)
24.10.2014 06:10 2,7 C 98 % 1023,2 hPa 0,0 l/m 0,0 km/h (0 Bft) NW 315 2,4 C 2,3 C 0,0 km/h (0 Bft)
24.10.2014 06:15 2,6 C 98 % 1023,2 hPa 0,0 l/m 0,0 km/h (0 Bft) NW 315 2,3 C 2,3 C 0,0 km/h (0 Bft)
24.10.2014 06:20 2,5 C 98 % 1023,2 hPa 0,0 l/m 0,0 km/h (0 Bft) NW 315 2,2 C 2,3 C 0,0 km/h (0 Bft)
24.10.2014 06:25 2,5 C 98 % 1023,2 hPa 0,0 l/m 0,0 km/h (0 Bft) NW 315 2,2 C 2,3 C 0,0 km/h (0 Bft)
24.10.2014 06:30 2,6 C 98 % 1023,2 hPa 0,0 l/m 0,0 km/h (0 Bft) NW 315 2,3 C 2,3 C 0,0 km/h (0 Bft)
24.10.2014 06:35 2,6 C 98 % 1023,2 hPa 0,0 l/m 0,0 km/h (0 Bft) NW 315 2,3 C 2,3 C 0,0 km/h (0 Bft)
24.10.2014 06:40 2,6 C 98 % 1023,1 hPa 0,0 l/m 0,0 km/h (0 Bft) NW 315 2,3 C 2,3 C 0,0 km/h (0 Bft)
24.10.2014 06:45 2,4 C 98 % 1023,1 hPa 0,0 l/m 0,0 km/h (0 Bft) NW 315 2,1 C 2,3 C 0,0 km/h (0 Bft)
24.10.2014 06:50 2,0 C 98 % 1023,1 hPa 0,0 l/m 0,0 km/h (0 Bft) NW 315 1,7 C 2,3 C 0,0 km/h (0 Bft)
24.10.2014 06:55 1,5 C 98 % 1023,1 hPa 0,0 l/m 0,0 km/h (0 Bft) NW 315 1,2 C 2,3 C 0,0 km/h (0 Bft)
24.10.2014 07:00 1,5 C 98 % 1023,1 hPa 0,0 l/m 0,0 km/h (0 Bft) NW 315 1,2 C 2,3 C 0,0 km/h (0 Bft)
24.10.2014 07:05 1,2 C 98 % 1023,1 hPa 0,0 l/m 0,0 km/h (0 Bft) NW 315 0,9 C 2,3 C 0,0 km/h (0 Bft)
24.10.2014 07:10 1,3 C 98 % 1023,1 hPa 0,0 l/m 0,0 km/h (0 Bft) NW 315 1,0 C 2,3 C 0,0 km/h (0 Bft)
24.10.2014 07:15 1,5 C 98 % 1023,1 hPa 0,0 l/m 0,0 km/h (0 Bft) NW 315 1,2 C 2,3 C 0,0 km/h (0 Bft)
24.10.2014 07:20 1,6 C 98 % 1023,1 hPa 0,0 l/m 0,0 km/h (0 Bft) NW 315 1,3 C 2,3 C 0,0 km/h (0 Bft)
24.10.2014 07:25 1,2 C 98 % 1023,1 hPa 0,0 l/m 0,0 km/h (0 Bft) NW 315 0,9 C 2,3 C 0,0 km/h (0 Bft)
24.10.2014 07:30 1,0 C 98 % 1023,1 hPa 0,0 l/m 0,0 km/h (0 Bft) NW 315 0,7 C 2,3 C 0,0 km/h (0 Bft)
24.10.2014 07:35 1,0 C 98 % 1023,1 hPa 0,0 l/m 0,0 km/h (0 Bft) NW 315 0,7 C 2,3 C 0,0 km/h (0 Bft)
24.10.2014 07:40 1,0 C 98 % 1023,1 hPa 0,0 l/m 0,0 km/h (0 Bft) NW 315 0,7 C 2,3 C 0,0 km/h (0 Bft)
24.10.2014 07:45 1,1 C 98 % 1023,1 hPa 0,0 l/m 0,0 km/h (0 Bft) NW 315 0,8 C 2,3 C 0,0 km/h (0 Bft)
24.10.2014 07:50 1,1 C 98 % 1023,1 hPa 0,0 l/m 0,0 km/h (0 Bft) NW 315 0,8 C 2,3 C 0,0 km/h (0 Bft)
24.10.2014 07:55 0,5 C 98 % 1023,1 hPa 0,0 l/m 0,0 km/h (0 Bft) NW 315 0,2 C 2,3 C 0,0 km/h (0 Bft)
24.10.2014 08:00 0,4 C 98 % 1023,1 hPa 0,0 l/m 0,0 km/h (0 Bft) NW 315 0,1 C 2,3 C 0,0 km/h (0 Bft)
24.10.2014 08:05 0,7 C 98 % 1023,1 hPa 0,0 l/m 0,0 km/h (0 Bft) NW 315 0,4 C 2,3 C 0,0 km/h (0 Bft)
24.10.2014 08:10 0,7 C 98 % 1023,1 hPa 0,0 l/m 0,0 km/h (0 Bft) NW 315 0,4 C 2,3 C 0,0 km/h (0 Bft)
24.10.2014 08:15 0,6 C 98 % 1023,1 hPa 0,0 l/m 0,0 km/h (0 Bft) NW 315 0,3 C 2,3 C 0,0 km/h (0 Bft)
24.10.2014 08:18 0,4 C 98 % 1023,1 hPa 0,0 l/m 0,0 km/h (0 Bft) NW 315 0,1 C 2,3 C 0,0 km/h (0 Bft)
24.10.2014 08:20 0,4 C 98 % 1023,1 hPa 0,0 l/m 0,0 km/h (0 Bft) NW 315 0,1 C 2,3 C 0,0 km/h (0 Bft)
24.10.2014 08:25 0,0 C 98 % 1023,1 hPa 0,0 l/m 0,0 km/h (0 Bft) NW 315 -0,3 C 2,3 C 0,0 km/h (0 Bft)
24.10.2014 08:30 0,2 C 98 % 1023,1 hPa 0,0 l/m 0,0 km/h (0 Bft) NW 315 -0,1 C 2,3 C 0,0 km/h (0 Bft)
24.10.2014 08:35 0,4 C 98 % 1023,1 hPa 0,0 l/m 0,0 km/h (0 Bft) NW 315 0,1 C 2,3 C 0,0 km/h (0 Bft)
24.10.2014 08:40 0,6 C 98 % 1023,2 hPa 0,0 l/m 0,0 km/h (0 Bft) NW 315 0,3 C 2,3 C 0,0 km/h (0 Bft)
24.10.2014 08:45 0,9 C 98 % 1023,2 hPa 0,0 l/m 0,0 km/h (0 Bft) NW 315 0,6 C 2,3 C 0,0 km/h (0 Bft)
24.10.2014 08:50 0,9 C 98 % 1023,2 hPa 0,0 l/m 0,0 km/h (0 Bft) NW 315 0,6 C 2,3 C 0,0 km/h (0 Bft)
24.10.2014 08:55 1,2 C 98 % 1023,2 hPa 0,0 l/m 0,0 km/h (0 Bft) NW 315 0,9 C 2,3 C 0,0 km/h (0 Bft)
24.10.2014 09:00 1,3 C 98 % 1023,4 hPa 0,0 l/m 0,0 km/h (0 Bft) NW 315 1,0 C 2,3 C 0,0 km/h (0 Bft)
24.10.2014 09:05 1,7 C 98 % 1023,4 hPa 0,0 l/m 0,0 km/h (0 Bft) NW 315 1,4 C 2,3 C 0,0 km/h (0 Bft)
24.10.2014 09:10 1,9 C 98 % 1023,4 hPa 0,0 l/m 0,0 km/h (0 Bft) NW 315 1,6 C 2,3 C 0,0 km/h (0 Bft)
24.10.2014 09:15 2,0 C 98 % 1023,4 hPa 0,0 l/m 0,0 km/h (0 Bft) NW 315 1,7 C 2,3 C 0,0 km/h (0 Bft)
24.10.2014 09:20 2,2 C 98 % 1023,4 hPa 0,0 l/m 0,0 km/h (0 Bft) NW 315 1,9 C 2,3 C 0,0 km/h (0 Bft)
24.10.2014 09:25 2,6 C 98 % 1023,4 hPa 0,0 l/m 0,0 km/h (0 Bft) NW 315 2,3 C 2,3 C 0,0 km/h (0 Bft)
24.10.2014 09:30 2,9 C 98 % 1023,4 hPa 0,0 l/m 0,0 km/h (0 Bft) NW 315 2,6 C 2,3 C 0,0 km/h (0 Bft)
24.10.2014 09:35 3,4 C 97 % 1023,4 hPa 0,0 l/m 0,0 km/h (0 Bft) NW 315 3,0 C 2,3 C 0,0 km/h (0 Bft)
24.10.2014 09:40 3,8 C 97 % 1023,3 hPa 0,0 l/m 0,0 km/h (0 Bft) NW 315 3,4 C 2,3 C 0,0 km/h (0 Bft)
24.10.2014 09:45 4,3 C 97 % 1023,3 hPa 0,0 l/m 0,0 km/h (0 Bft) N-NO 22 3,9 C 4,9 C 0,0 km/h (0 Bft)
24.10.2014 09:50 4,8 C 97 % 1023,3 hPa 0,0 l/m 0,0 km/h (0 Bft) N 360 4,4 C 6,5 C 0,0 km/h (0 Bft)
24.10.2014 09:55 4,8 C 97 % 1023,3 hPa 0,0 l/m 1,1 km/h (1 Bft) N-NO 22 4,4 C 7,3 C 3,9 km/h (1 Bft)
24.10.2014 10:00 5,0 C 97 % 1023,3 hPa 0,0 l/m 2,1 km/h (1 Bft) N 360 4,6 C 8,1 C 1,9 km/h (1 Bft)
24.10.2014 10:05 5,2 C 97 % 1023,3 hPa 0,0 l/m 1,8 km/h (1 Bft) W 270 4,8 C 9,9 C 5,5 km/h (1 Bft)
24.10.2014 10:10 5,0 C 97 % 1023,3 hPa 0,0 l/m 1,9 km/h (1 Bft) SO 135 4,6 C 9,8 C 4,8 km/h (1 Bft)
24.10.2014 10:15 5,1 C 97 % 1023,3 hPa 0,0 l/m 3,1 km/h (1 Bft) O-SO 112 4,7 C 8,3 C 7,9 km/h (2 Bft)
24.10.2014 10:20 5,2 C 97 % 1023,2 hPa 0,0 l/m 2,7 km/h (1 Bft) NO 45 4,8 C 7,6 C 4,8 km/h (1 Bft)
24.10.2014 10:25 5,2 C 96 % 1023,2 hPa 0,0 l/m 3,1 km/h (1 Bft) O-SO 112 4,6 C 7,0 C 4,8 km/h (1 Bft)
24.10.2014 10:30 5,1 C 96 % 1023,2 hPa 0,0 l/m 4,2 km/h (1 Bft) O-NO 67 4,5 C 6,3 C 6,6 km/h (2 Bft)
24.10.2014 10:35 5,1 C 96 % 1023,2 hPa 0,0 l/m 4,2 km/h (1 Bft) O-SO 112 4,5 C 5,8 C 3,9 km/h (1 Bft)
24.10.2014 10:40 5,1 C 96 % 1023,4 hPa 0,0 l/m 3,9 km/h (1 Bft) O-NO 67 4,5 C 5,9 C 5,5 km/h (1 Bft)
24.10.2014 10:45 5,1 C 96 % 1023,4 hPa 0,0 l/m 3,2 km/h (1 Bft) N-NO 22 4,5 C 6,6 C 0,0 km/h (0 Bft)
24.10.2014 10:50 5,2 C 96 % 1023,4 hPa 0,0 l/m 2,7 km/h (1 Bft) O-NO 67 4,6 C 7,4 C 5,0 km/h (1 Bft)
24.10.2014 10:55 5,1 C 96 % 1023,4 hPa 0,0 l/m 2,7 km/h (1 Bft) N-NW 337 4,5 C 8,0 C 1,9 km/h (1 Bft)
24.10.2014 11:00 5,3 C 96 % 1023,2 hPa 0,0 l/m 3,2 km/h (1 Bft) O-NO 67 4,7 C 8,8 C 3,4 km/h (1 Bft)
24.10.2014 11:05 5,2 C 96 % 1023,2 hPa 0,0 l/m 3,2 km/h (1 Bft) O-SO 112 4,6 C 9,2 C 3,5 km/h (1 Bft)
24.10.2014 11:10 5,1 C 96 % 1023,2 hPa 0,0 l/m 2,9 km/h (1 Bft) O 90 4,5 C 9,7 C 0,0 km/h (0 Bft)
24.10.2014 11:13 5,1 C 96 % 1023,2 hPa 0,0 l/m 2,4 km/h (1 Bft) NW 315 4,5 C 10,6 C 0,0 km/h (0 Bft)
24.10.2014 11:15 5,1 C 96 % 1023,2 hPa 0,0 l/m 2,4 km/h (1 Bft) NW 315 4,5 C 10,6 C 0,0 km/h (0 Bft)
24.10.2014 11:20 5,4 C 95 % 1023,4 hPa 0,0 l/m 2,1 km/h (1 Bft) NO 45 4,7 C 11,4 C 2,9 km/h (1 Bft)
24.10.2014 11:25 6,3 C 94 % 1023,4 hPa 0,0 l/m 2,1 km/h (1 Bft) NO 45 5,4 C 12,3 C 12,6 km/h (3 Bft)
24.10.2014 11:30 6,4 C 93 % 1023,4 hPa 0,0 l/m 4,0 km/h (1 Bft) O-NO 67 5,4 C 12,8 C 7,9 km/h (2 Bft)
24.10.2014 11:35 6,1 C 91 % 1023,4 hPa 0,0 l/m 5,1 km/h (1 Bft) O-SO 112 4,7 C 11,4 C 5,0 km/h (1 Bft)
24.10.2014 11:40 6,1 C 91 % 1023,4 hPa 0,0 l/m 5,1 km/h (1 Bft) O-NO 67 4,7 C 9,8 C 5,5 km/h (1 Bft)
24.10.2014 11:45 6,2 C 90 % 1023,4 hPa 0,0 l/m 5,3 km/h (1 Bft) O-SO 112 4,7 C 8,3 C 6,3 km/h (2 Bft)
24.10.2014 11:50 6,1 C 90 % 1023,4 hPa 0,0 l/m 5,1 km/h (1 Bft) O-NO 67 4,6 C 7,9 C 5,1 km/h (1 Bft)
24.10.2014 11:55 6,1 C 89 % 1023,4 hPa 0,0 l/m 4,3 km/h (1 Bft) N-NO 22 4,4 C 8,0 C 8,4 km/h (2 Bft)
24.10.2014 12:00 6,0 C 88 % 1023,5 hPa 0,0 l/m 5,0 km/h (1 Bft) NO 45 4,2 C 7,6 C 6,3 km/h (2 Bft)
24.10.2014 12:05 6,3 C 87 % 1023,5 hPa 0,0 l/m 4,3 km/h (1 Bft) NO 45 4,3 C 7,9 C 3,9 km/h (1 Bft)
24.10.2014 12:10 6,4 C 87 % 1023,5 hPa 0,0 l/m 3,9 km/h (1 Bft) O-SO 112 4,4 C 8,2 C 4,2 km/h (1 Bft)
24.10.2014 12:15 6,6 C 87 % 1023,5 hPa 0,0 l/m 4,3 km/h (1 Bft) N-NO 22 4,6 C 8,3 C 2,1 km/h (1 Bft)
24.10.2014 12:20 6,8 C 87 % 1023,3 hPa 0,0 l/m 3,9 km/h (1 Bft) N-NO 22 4,8 C 8,6 C 4,3 km/h (1 Bft)
24.10.2014 12:25 7,6 C 86 % 1023,3 hPa 0,0 l/m 4,3 km/h (1 Bft) O 90 5,4 C 8,7 C 4,2 km/h (1 Bft)
24.10.2014 12:30 8,5 C 85 % 1023,3 hPa 0,0 l/m 4,3 km/h (1 Bft) O 90 6,1 C 9,8 C 5,6 km/h (1 Bft)
24.10.2014 12:35 9,6 C 80 % 1023,3 hPa 0,0 l/m 5,0 km/h (1 Bft) O-NO 67 6,3 C 11,2 C 12,2 km/h (2 Bft)
24.10.2014 12:40 9,1 C 73 % 1023,4 hPa 0,0 l/m 6,0 km/h (2 Bft) SO 135 4,5 C 11,6 C 6,0 km/h (2 Bft)
24.10.2014 12:45 9,5 C 76 % 1023,4 hPa 0,0 l/m 6,3 km/h (2 Bft) O-NO 67 5,5 C 11,7 C 4,0 km/h (1 Bft)
24.10.2014 12:50 9,5 C 76 % 1023,4 hPa 0,0 l/m 5,6 km/h (1 Bft) O-SO 112 5,5 C 11,8 C 6,8 km/h (2 Bft)
24.10.2014 12:55 9,9 C 76 % 1023,4 hPa 0,0 l/m 5,5 km/h (1 Bft) O 90 5,9 C 11,4 C 6,1 km/h (2 Bft)
24.10.2014 13:00 9,7 C 73 % 1023,3 hPa 0,0 l/m 5,6 km/h (1 Bft) S-SO 157 5,1 C 11,0 C 9,2 km/h (2 Bft)
24.10.2014 13:05 10,5 C 75 % 1023,3 hPa 0,0 l/m 4,8 km/h (1 Bft) O-NO 67 6,3 C 11,1 C 9,8 km/h (2 Bft)
24.10.2014 13:10 10,4 C 74 % 1023,3 hPa 0,0 l/m 5,0 km/h (1 Bft) NO 45 6,0 C 10,9 C 10,3 km/h (2 Bft)
24.10.2014 13:15 9,5 C 73 % 1023,3 hPa 0,0 l/m 5,8 km/h (2 Bft) O-NO 67 4,9 C 9,9 C 11,1 km/h (2 Bft)
24.10.2014 13:20 9,6 C 77 % 1023,2 hPa 0,0 l/m 5,0 km/h (1 Bft) NO 45 5,8 C 10,1 C 2,3 km/h (1 Bft)
24.10.2014 13:25 9,8 C 77 % 1023,2 hPa 0,0 l/m 4,0 km/h (1 Bft) NW 315 6,0 C 10,8 C 5,0 km/h (1 Bft)
24.10.2014 13:30 8,9 C 74 % 1023,2 hPa 0,0 l/m 4,0 km/h (1 Bft) O-SO 112 4,5 C 11,1 C 4,3 km/h (1 Bft)
24.10.2014 13:35 9,1 C 77 % 1023,2 hPa 0,0 l/m 4,2 km/h (1 Bft) S-SO 157 5,3 C 11,1 C 0,0 km/h (0 Bft)
24.10.2014 13:40 9,0 C 77 % 1023,2 hPa 0,0 l/m 3,4 km/h (1 Bft) SO 135 5,2 C 11,6 C 4,3 km/h (1 Bft)
24.10.2014 13:45 9,2 C 81 % 1023,2 hPa 0,0 l/m 2,7 km/h (1 Bft) O-NO 67 6,1 C 11,1 C 4,2 km/h (1 Bft)
24.10.2014 13:50 9,3 C 81 % 1023,2 hPa 0,0 l/m 3,2 km/h (1 Bft) O-SO 112 6,2 C 11,1 C 6,9 km/h (2 Bft)
24.10.2014 13:55 9,7 C 76 % 1023,2 hPa 0,0 l/m 3,1 km/h (1 Bft) O-NO 67 5,7 C 12,2 C 4,8 km/h (1 Bft)
24.10.2014 14:00 9,4 C 75 % 1022,8 hPa 0,0 l/m 4,0 km/h (1 Bft) O-NO 67 5,2 C 11,8 C 7,2 km/h (2 Bft)
24.10.2014 14:05 9,1 C 78 % 1022,8 hPa 0,0 l/m 4,7 km/h (1 Bft) O 90 5,5 C 10,9 C 5,0 km/h (1 Bft)
24.10.2014 14:10 8,8 C 79 % 1022,8 hPa 0,0 l/m 4,2 km/h (1 Bft) O-NO 67 5,4 C 10,6 C 10,5 km/h (2 Bft)
24.10.2014 14:13 8,7 C 80 % 1022,8 hPa 0,0 l/m 4,2 km/h (1 Bft) O-NO 67 5,4 C 9,7 C 6,0 km/h (2 Bft)
24.10.2014 14:15 8,7 C 80 % 1022,8 hPa 0,0 l/m 4,2 km/h (1 Bft) O-NO 67 5,4 C 9,7 C 6,0 km/h (2 Bft)
24.10.2014 14:20 8,5 C 80 % 1022,4 hPa 0,0 l/m 4,5 km/h (1 Bft) O-NO 67 5,3 C 9,2 C 5,1 km/h (1 Bft)
24.10.2014 14:25 8,3 C 79 % 1022,4 hPa 0,0 l/m 3,7 km/h (1 Bft) N 360 4,9 C 9,2 C 5,5 km/h (1 Bft)
24.10.2014 14:30 8,4 C 80 % 1022,4 hPa 0,0 l/m 3,7 km/h (1 Bft) NO 45 5,2 C 9,2 C 4,5 km/h (1 Bft)
24.10.2014 14:35 8,7 C 82 % 1022,4 hPa 0,0 l/m 3,9 km/h (1 Bft) O-NO 67 5,8 C 9,1 C 4,7 km/h (1 Bft)
24.10.2014 14:40 8,6 C 81 % 1022,3 hPa 0,0 l/m 3,5 km/h (1 Bft) O 90 5,5 C 9,3 C 4,5 km/h (1 Bft)
24.10.2014 14:45 8,8 C 83 % 1022,3 hPa 0,0 l/m 2,9 km/h (1 Bft) O-NO 67 6,1 C 9,4 C 2,6 km/h (1 Bft)
24.10.2014 14:50 8,6 C 81 % 1022,3 hPa 0,0 l/m 3,7 km/h (1 Bft) NO 45 5,5 C 9,3 C 9,2 km/h (2 Bft)
24.10.2014 14:55 8,3 C 79 % 1022,3 hPa 0,0 l/m 4,7 km/h (1 Bft) NO 45 4,9 C 8,7 C 2,9 km/h (1 Bft)
24.10.2014 15:00 8,3 C 79 % 1022,1 hPa 0,0 l/m 4,5 km/h (1 Bft) O-SO 112 4,9 C 8,7 C 5,1 km/h (1 Bft)
24.10.2014 15:05 8,3 C 80 % 1022,1 hPa 0,0 l/m 3,1 km/h (1 Bft) O-NO 67 5,1 C 8,8 C 5,0 km/h (1 Bft)
24.10.2014 15:10 8,4 C 81 % 1022,1 hPa 0,0 l/m 2,7 km/h (1 Bft) O-NO 67 5,3 C 8,8 C 2,4 km/h (1 Bft)
24.10.2014 15:15 8,4 C 79 % 1022,1 hPa 0,0 l/m 3,2 km/h (1 Bft) NO 45 5,0 C 8,8 C 4,5 km/h (1 Bft)
24.10.2014 15:20 8,7 C 80 % 1021,9 hPa 0,0 l/m 3,1 km/h (1 Bft) O 90 5,4 C 9,0 C 0,0 km/h (0 Bft)
24.10.2014 15:25 9,2 C 81 % 1021,9 hPa 0,0 l/m 2,1 km/h (1 Bft) S 180 6,1 C 9,6 C 3,1 km/h (1 Bft)
24.10.2014 15:30 9,2 C 81 % 1021,9 hPa 0,0 l/m 1,0 km/h (0 Bft) O-NO 67 6,1 C 9,9 C 0,0 km/h (0 Bft)
24.10.2014 15:35 9,3 C 82 % 1021,9 hPa 0,0 l/m 0,6 km/h (0 Bft) S-SO 157 6,4 C 10,0 C 0,0 km/h (0 Bft)
24.10.2014 15:40 9,9 C 83 % 1022,1 hPa 0,0 l/m 0,5 km/h (0 Bft) SO 135 7,2 C 10,6 C 0,0 km/h (0 Bft)
24.10.2014 15:45 10,4 C 79 % 1022,1 hPa 0,0 l/m 0,2 km/h (0 Bft) N-NO 22 6,9 C 11,5 C 2,4 km/h (1 Bft)
24.10.2014 15:50 10,0 C 74 % 1022,1 hPa 0,0 l/m 0,5 km/h (0 Bft) S-SO 157 5,6 C 11,5 C 0,0 km/h (0 Bft)
24.10.2014 15:55 9,7 C 78 % 1022,1 hPa 0,0 l/m 1,0 km/h (0 Bft) N-NO 22 6,1 C 11,3 C 2,9 km/h (1 Bft)
24.10.2014 16:00 9,2 C 72 % 1022,1 hPa 0,0 l/m 1,6 km/h (1 Bft) O-NO 67 4,4 C 10,8 C 6,0 km/h (2 Bft)
24.10.2014 16:05 9,0 C 74 % 1022,1 hPa 0,0 l/m 2,4 km/h (1 Bft) O-SO 112 4,6 C 10,1 C 1,6 km/h (1 Bft)
24.10.2014 16:10 8,9 C 76 % 1022,1 hPa 0,0 l/m 1,9 km/h (1 Bft) SO 135 4,9 C 9,9 C 2,1 km/h (1 Bft)
24.10.2014 16:15 9,3 C 77 % 1022,1 hPa 0,0 l/m 0,3 km/h (0 Bft) S-SO 157 5,5 C 10,0 C 0,0 km/h (0 Bft)
24.10.2014 16:20 9,1 C 77 % 1022,0 hPa 0,0 l/m 0,3 km/h (0 Bft) SO 135 5,3 C 10,0 C 0,0 km/h (0 Bft)
24.10.2014 16:25 8,8 C 77 % 1022,0 hPa 0,0 l/m 0,6 km/h (0 Bft) O-SO 112 5,0 C 9,8 C 1,9 km/h (1 Bft)
24.10.2014 16:30 8,6 C 78 % 1022,0 hPa 0,0 l/m 0,3 km/h (0 Bft) SO 135 5,0 C 9,5 C 0,0 km/h (0 Bft)
24.10.2014 16:35 8,6 C 78 % 1022,0 hPa 0,0 l/m 0,3 km/h (0 Bft) O 90 5,0 C 9,5 C 2,4 km/h (1 Bft)
24.10.2014 16:40 8,8 C 79 % 1021,8 hPa 0,0 l/m 0,2 km/h (0 Bft) O-NO 67 5,4 C 9,5 C 0,0 km/h (0 Bft)
24.10.2014 16:45 9,0 C 79 % 1021,8 hPa 0,0 l/m 0,2 km/h (0 Bft) SO 135 5,6 C 9,6 C 0,0 km/h (0 Bft)
24.10.2014 16:50 9,1 C 79 % 1021,8 hPa 0,0 l/m 0,0 km/h (0 Bft) S-SO 157 5,7 C 9,9 C 0,0 km/h (0 Bft)
24.10.2014 16:55 9,0 C 79 % 1021,8 hPa 0,0 l/m 0,0 km/h (0 Bft) O-SO 112 5,6 C 10,0 C 0,0 km/h (0 Bft)
24.10.2014 17:00 9,1 C 80 % 1021,9 hPa 0,0 l/m 0,0 km/h (0 Bft) O-SO 112 5,8 C 10,1 C 0,0 km/h (0 Bft)
24.10.2014 17:05 8,9 C 78 % 1021,9 hPa 0,0 l/m 0,0 km/h (0 Bft) NO 45 5,3 C 10,1 C 2,1 km/h (1 Bft)
24.10.2014 17:10 8,8 C 77 % 1021,9 hPa 0,0 l/m 0,6 km/h (0 Bft) N 360 5,0 C 9,9 C 0,0 km/h (0 Bft)
24.10.2014 17:13 8,5 C 76 % 1021,9 hPa 0,0 l/m 1,1 km/h (1 Bft) SO 135 4,5 C 9,7 C 0,0 km/h (0 Bft)
24.10.2014 17:15 8,5 C 76 % 1021,9 hPa 0,0 l/m 1,1 km/h (1 Bft) SO 135 4,5 C 9,7 C 0,0 km/h (0 Bft)
24.10.2014 17:20 8,5 C 77 % 1021,7 hPa 0,0 l/m 0,5 km/h (0 Bft) O-SO 112 4,7 C 9,6 C 0,0 km/h (0 Bft)
24.10.2014 17:25 8,3 C 78 % 1021,7 hPa 0,0 l/m 0,0 km/h (0 Bft) S-SO 157 4,7 C 9,5 C 0,0 km/h (0 Bft)
24.10.2014 17:30 8,1 C 79 % 1021,7 hPa 0,0 l/m 0,0 km/h (0 Bft) SO 135 4,7 C 9,3 C 0,0 km/h (0 Bft)
24.10.2014 17:35 8,0 C 79 % 1021,7 hPa 0,0 l/m 0,0 km/h (0 Bft) S 180 4,6 C 9,0 C 0,0 km/h (0 Bft)
24.10.2014 17:40 7,9 C 80 % 1021,7 hPa 0,0 l/m 0,0 km/h (0 Bft) S 180 4,7 C 8,8 C 0,0 km/h (0 Bft)
24.10.2014 17:45 7,9 C 80 % 1021,7 hPa 0,0 l/m 0,0 km/h (0 Bft) S-SO 157 4,7 C 8,6 C 0,0 km/h (0 Bft)
24.10.2014 17:50 7,7 C 80 % 1021,7 hPa 0,0 l/m 0,0 km/h (0 Bft) SO 135 4,5 C 8,5 C 0,0 km/h (0 Bft)
24.10.2014 17:55 7,5 C 80 % 1021,7 hPa 0,0 l/m 0,0 km/h (0 Bft) S-SO 157 4,3 C 8,1 C 0,0 km/h (0 Bft)
24.10.2014 18:00 7,5 C 81 % 1021,6 hPa 0,0 l/m 0,0 km/h (0 Bft) S 180 4,5 C 7,9 C 0,0 km/h (0 Bft)
24.10.2014 18:05 7,3 C 81 % 1021,6 hPa 0,0 l/m 0,0 km/h (0 Bft) S-SO 157 4,3 C 7,7 C 0,0 km/h (0 Bft)
24.10.2014 18:10 7,3 C 81 % 1021,6 hPa 0,0 l/m 0,0 km/h (0 Bft) S-SO 157 4,3 C 7,5 C 0,0 km/h (0 Bft)
24.10.2014 18:15 7,1 C 82 % 1021,6 hPa 0,0 l/m 0,0 km/h (0 Bft) S-SO 157 4,2 C 7,3 C 0,0 km/h (0 Bft)
24.10.2014 18:20 7,0 C 82 % 1021,4 hPa 0,0 l/m 0,3 km/h (0 Bft) SO 135 4,1 C 7,1 C 1,6 km/h (1 Bft)
24.10.2014 18:25 6,9 C 83 % 1021,4 hPa 0,0 l/m 0,5 km/h (0 Bft) S 180 4,2 C 7,0 C 0,0 km/h (0 Bft)
24.10.2014 18:30 6,9 C 83 % 1021,4 hPa 0,0 l/m 0,3 km/h (0 Bft) S-SO 157 4,2 C 6,9 C 0,0 km/h (0 Bft)
24.10.2014 18:35 6,8 C 84 % 1021,4 hPa 0,0 l/m 0,3 km/h (0 Bft) SO 135 4,3 C 6,8 C 0,0 km/h (0 Bft)
24.10.2014 18:40 6,6 C 84 % 1021,3 hPa 0,0 l/m 0,2 km/h (0 Bft) S 180 4,1 C 6,7 C 0,0 km/h (0 Bft)
24.10.2014 18:45 6,1 C 84 % 1021,3 hPa 0,0 l/m 0,3 km/h (0 Bft) SO 135 3,6 C 6,3 C 1,6 km/h (1 Bft)
24.10.2014 18:50 5,9 C 85 % 1021,3 hPa 0,0 l/m 0,5 km/h (0 Bft) S-SO 157 3,6 C 6,0 C 0,0 km/h (0 Bft)
24.10.2014 18:55 5,5 C 86 % 1021,3 hPa 0,0 l/m 0,6 km/h (0 Bft) S 180 3,3 C 5,5 C 0,0 km/h (0 Bft)
24.10.2014 19:00 5,3 C 86 % 1021,2 hPa 0,0 l/m 1,0 km/h (0 Bft) S-SO 157 3,2 C 5,2 C 2,1 km/h (1 Bft)
24.10.2014 19:05 4,8 C 86 % 1021,2 hPa 0,0 l/m 0,5 km/h (0 Bft) S 180 2,7 C 4,8 C 0,0 km/h (0 Bft)
24.10.2014 19:10 4,6 C 87 % 1021,2 hPa 0,0 l/m 0,3 km/h (0 Bft) S 180 2,6 C 4,4 C 0,0 km/h (0 Bft)
24.10.2014 19:15 4,4 C 87 % 1021,2 hPa 0,0 l/m 0,2 km/h (0 Bft) S-SO 157 2,4 C 4,0 C 0,0 km/h (0 Bft)
24.10.2014 19:20 4,2 C 87 % 1021,2 hPa 0,0 l/m 0,2 km/h (0 Bft) S-SO 157 2,2 C 3,8 C 0,0 km/h (0 Bft)
24.10.2014 19:25 3,9 C 88 % 1021,2 hPa 0,0 l/m 0,0 km/h (0 Bft) S 180 2,1 C 3,4 C 0,0 km/h (0 Bft)
24.10.2014 19:30 3,8 C 88 % 1021,2 hPa 0,0 l/m 0,0 km/h (0 Bft) S 180 2,0 C 3,3 C 0,0 km/h (0 Bft)
24.10.2014 19:35 3,5 C 88 % 1021,2 hPa 0,0 l/m 0,5 km/h (0 Bft) S-SO 157 1,7 C 3,1 C 0,0 km/h (0 Bft)
24.10.2014 19:40 3,5 C 89 % 1021,2 hPa 0,0 l/m 0,5 km/h (0 Bft) S 180 1,9 C 2,9 C 0,0 km/h (0 Bft)
24.10.2014 19:45 3,4 C 89 % 1021,2 hPa 0,0 l/m 0,0 km/h (0 Bft) S-SO 157 1,8 C 2,7 C 0,0 km/h (0 Bft)
24.10.2014 19:50 3,3 C 89 % 1021,2 hPa 0,0 l/m 0,0 km/h (0 Bft) SO 135 1,7 C 2,5 C 0,0 km/h (0 Bft)
24.10.2014 19:55 2,3 C 89 % 1021,2 hPa 0,0 l/m 0,0 km/h (0 Bft) S 180 0,7 C 2,1 C 0,0 km/h (0 Bft)
24.10.2014 20:00 2,4 C 89 % 1021,0 hPa 0,0 l/m 0,0 km/h (0 Bft) O-SO 112 0,8 C 1,9 C 0,0 km/h (0 Bft)
24.10.2014 20:05 2,1 C 89 % 1021,0 hPa 0,0 l/m 0,0 km/h (0 Bft) O-SO 112 0,5 C 1,5 C 0,0 km/h (0 Bft)
24.10.2014 20:10 2,2 C 89 % 1021,0 hPa 0,0 l/m 0,3 km/h (0 Bft) W-SW 247 0,6 C 1,2 C 1,8 km/h (1 Bft)
24.10.2014 20:13 2,7 C 91 % 1021,0 hPa 0,0 l/m 1,4 km/h (1 Bft) N 360 1,4 C 1,7 C 0,0 km/h (0 Bft)
24.10.2014 20:15 2,7 C 91 % 1021,0 hPa 0,0 l/m 1,4 km/h (1 Bft) N 360 1,4 C 1,7 C 0,0 km/h (0 Bft)
24.10.2014 20:20 2,6 C 92 % 1020,9 hPa 0,0 l/m 1,8 km/h (1 Bft) S-SO 157 1,4 C 1,8 C 0,0 km/h (0 Bft)
24.10.2014 20:25 2,0 C 91 % 1020,9 hPa 0,0 l/m 0,5 km/h (0 Bft) W-SW 247 0,7 C 1,5 C 0,0 km/h (0 Bft)
24.10.2014 20:30 1,8 C 92 % 1020,9 hPa 0,0 l/m 0,0 km/h (0 Bft) SW 225 0,6 C 1,2 C 0,0 km/h (0 Bft)
24.10.2014 20:35 1,5 C 92 % 1020,9 hPa 0,0 l/m 0,0 km/h (0 Bft) S-SW 202 0,3 C 0,8 C 0,0 km/h (0 Bft)
24.10.2014 20:40 1,8 C 92 % 1021,0 hPa 0,0 l/m 0,8 km/h (0 Bft) S 180 0,6 C 0,8 C 2,9 km/h (1 Bft)
24.10.2014 20:45 1,9 C 92 % 1021,0 hPa 0,0 l/m 0,8 km/h (0 Bft) S-SO 157 0,7 C 0,9 C 0,0 km/h (0 Bft)
24.10.2014 20:50 1,9 C 92 % 1021,0 hPa 0,0 l/m 0,2 km/h (0 Bft) S-SO 157 0,7 C 0,7 C 0,0 km/h (0 Bft)
24.10.2014 20:55 1,6 C 92 % 1021,0 hPa 0,0 l/m 0,0 km/h (0 Bft) S 180 0,4 C 0,6 C 0,0 km/h (0 Bft)
24.10.2014 21:00 1,4 C 92 % 1021,0 hPa 0,0 l/m 0,0 km/h (0 Bft) S-SO 157 0,2 C 0,3 C 0,0 km/h (0 Bft)
24.10.2014 21:05 1,5 C 92 % 1021,0 hPa 0,0 l/m 0,0 km/h (0 Bft) SO 135 0,3 C 0,3 C 0,0 km/h (0 Bft)
24.10.2014 21:10 1,6 C 92 % 1021,0 hPa 0,0 l/m 0,2 km/h (0 Bft) SO 135 0,4 C 0,3 C 0,0 km/h (0 Bft)
24.10.2014 21:15 1,2 C 92 % 1021,0 hPa 0,0 l/m 0,2 km/h (0 Bft) SO 135 0,0 C 0,3 C 0,0 km/h (0 Bft)
24.10.2014 21:20 1,2 C 92 % 1021,1 hPa 0,0 l/m 0,0 km/h (0 Bft) SO 135 0,0 C 0,2 C 0,0 km/h (0 Bft)
24.10.2014 21:25 1,3 C 93 % 1021,1 hPa 0,0 l/m 0,0 km/h (0 Bft) SO 135 0,3 C 0,1 C 0,0 km/h (0 Bft)
24.10.2014 21:30 1,1 C 93 % 1021,1 hPa 0,0 l/m 0,0 km/h (0 Bft) W-SW 247 0,1 C 0,0 C 0,0 km/h (0 Bft)
24.10.2014 21:35 1,3 C 93 % 1021,1 hPa 0,0 l/m 0,5 km/h (0 Bft) O-SO 112 0,3 C 0,1 C 2,1 km/h (1 Bft)
24.10.2014 21:40 1,0 C 93 % 1021,2 hPa 0,0 l/m 0,6 km/h (0 Bft) O 90 -0,0 C 0,1 C 0,0 km/h (0 Bft)
24.10.2014 21:45 1,1 C 93 % 1021,2 hPa 0,0 l/m 0,3 km/h (0 Bft) SO 135 0,1 C 0,1 C 2,3 km/h (1 Bft)
24.10.2014 21:50 1,0 C 93 % 1021,2 hPa 0,0 l/m 0,3 km/h (0 Bft) SO 135 -0,0 C 0,1 C 1,6 km/h (1 Bft)
24.10.2014 21:55 1,1 C 93 % 1021,2 hPa 0,0 l/m 1,1 km/h (1 Bft) S-SO 157 0,1 C 0,1 C 1,6 km/h (1 Bft)
24.10.2014 22:00 1,2 C 93 % 1021,2 hPa 0,0 l/m 1,1 km/h (1 Bft) S 180 0,2 C 0,2 C 0,0 km/h (0 Bft)
24.10.2014 22:05 0,7 C 93 % 1021,2 hPa 0,0 l/m 0,3 km/h (0 Bft) S-SO 157 -0,3 C 0,1 C 0,0 km/h (0 Bft)
24.10.2014 22:10 0,7 C 93 % 1021,2 hPa 0,0 l/m 0,0 km/h (0 Bft) S-SO 157 -0,3 C -0,1 C 0,0 km/h (0 Bft)
24.10.2014 22:15 0,2 C 93 % 1021,2 hPa 0,0 l/m 0,0 km/h (0 Bft) S-SW 202 -0,8 C -0,5 C 0,0 km/h (0 Bft)
24.10.2014 22:20 0,3 C 93 % 1021,2 hPa 0,0 l/m 0,0 km/h (0 Bft) S-SO 157 -0,7 C -0,7 C 0,0 km/h (0 Bft)
24.10.2014 22:25 0,1 C 93 % 1021,2 hPa 0,0 l/m 0,0 km/h (0 Bft) SW 225 -0,9 C -0,8 C 0,0 km/h (0 Bft)
24.10.2014 22:30 0,1 C 93 % 1021,2 hPa 0,0 l/m 0,0 km/h (0 Bft) S-SO 157 -0,9 C -0,8 C 0,0 km/h (0 Bft)
24.10.2014 22:35 -0,1 C 93 % 1021,2 hPa 0,0 l/m 0,0 km/h (0 Bft) S-SO 157 -1,1 C -1,0 C 0,0 km/h (0 Bft)
24.10.2014 22:40 -0,3 C 93 % 1020,9 hPa 0,0 l/m 0,0 km/h (0 Bft) S-SO 157 -1,3 C -1,2 C 0,0 km/h (0 Bft)
24.10.2014 22:45 -0,3 C 93 % 1020,9 hPa 0,0 l/m 0,0 km/h (0 Bft) S-SO 157 -1,3 C -1,2 C 0,0 km/h (0 Bft)
24.10.2014 22:50 0,0 C 93 % 1020,9 hPa 0,0 l/m 0,0 km/h (0 Bft) S-SO 157 -1,0 C -1,2 C 0,0 km/h (0 Bft)
24.10.2014 22:55 -0,2 C 93 % 1020,9 hPa 0,0 l/m 0,0 km/h (0 Bft) S-SO 157 -1,2 C -1,1 C 0,0 km/h (0 Bft)
24.10.2014 23:00 -0,2 C 93 % 1021,2 hPa 0,0 l/m 0,0 km/h (0 Bft) S-SO 157 -1,2 C -1,1 C 0,0 km/h (0 Bft)
24.10.2014 23:05 0,1 C 93 % 1021,2 hPa 0,0 l/m 0,0 km/h (0 Bft) NW 315 -0,9 C -0,9 C 0,0 km/h (0 Bft)
24.10.2014 23:08 -0,1 C 93 % 1021,2 hPa 0,0 l/m 0,2 km/h (0 Bft) NW 315 -1,1 C -0,8 C 0,0 km/h (0 Bft)
24.10.2014 23:10 -0,1 C 93 % 1021,2 hPa 0,0 l/m 0,2 km/h (0 Bft) NW 315 -1,1 C -0,8 C 0,0 km/h (0 Bft)
24.10.2014 23:15 0,0 C 93 % 1021,2 hPa 0,0 l/m 0,2 km/h (0 Bft) NW 315 -1,0 C -0,8 C 0,0 km/h (0 Bft)
24.10.2014 23:20 -0,1 C 93 % 1021,1 hPa 0,0 l/m 0,0 km/h (0 Bft) W-NW 292 -1,1 C -0,9 C 0,0 km/h (0 Bft)
24.10.2014 23:25 -0,3 C 93 % 1021,1 hPa 0,0 l/m 0,2 km/h (0 Bft) W-NW 292 -1,3 C -0,9 C 0,0 km/h (0 Bft)
24.10.2014 23:30 0,0 C 93 % 1021,1 hPa 0,0 l/m 0,2 km/h (0 Bft) W-NW 292 -1,0 C -0,8 C 0,0 km/h (0 Bft)
24.10.2014 23:35 -0,1 C 93 % 1021,1 hPa 0,0 l/m 0,0 km/h (0 Bft) O-NO 67 -1,1 C -0,8 C 0,0 km/h (0 Bft)
24.10.2014 23:40 0,2 C 94 % 1020,9 hPa 0,0 l/m 0,2 km/h (0 Bft) N-NO 22 -0,6 C -0,6 C 1,6 km/h (1 Bft)
24.10.2014 23:45 0,4 C 94 % 1020,9 hPa 0,0 l/m 0,2 km/h (0 Bft) W-NW 292 -0,5 C -0,2 C 0,0 km/h (0 Bft)
24.10.2014 23:50 0,3 C 94 % 1020,9 hPa 0,0 l/m 0,2 km/h (0 Bft) W-SW 247 -0,5 C -0,2 C 0,0 km/h (0 Bft)
24.10.2014 23:55 0,5 C 94 % 1020,9 hPa 0,0 l/m 0,5 km/h (0 Bft) SO 135 -0,4 C 0,0 C 0,0 km/h (0 Bft)
_ Min-Zeit 23:25 16:00 23:55 - 23:35 - - 23:25 22:50 23:55
Minimum _ -0,3 C 72 % 1020,9 hPa - 0,0 km/h (0 Bft) - - -1,3 C -1,2 C 0,0 km/h (0 Bft)
_ Max-Zeit 13:05 09:30 00:15 23:55 12:45 - - 15:40 11:30 11:25
Maximum _ 10,5 C 98 % 1024,5 hPa 0,0 l/m 6,3 km/h
O-NO (2 Bft)
- - 7,2 C 12,8 C 12,6 km/h
NO (3 Bft)
Durchschnitt _ 4,2 C 91 % 1022,8 hPa #0,0 l/m 1,0 km/h (0 Bft) O-NO - 2,8 C 4,6 C 1,3 km/h (1 Bft)